Weather History for Menomonie, WI

Change the Weather History Date:

Monday, December 10, 2012

  Actual Average (KEAU) Record (KEAU)
Temperature  
Mean Temperature 20 °F 20 °F  
Max Temperature 28 °F 29 °F 53 °F (1979)
Min Temperature 10 °F 12 °F -20 °F (1978)
Degree Days  
Heating Degree Days 45 45  
Month to date heating degree days 428  
Since 1 July heating degree days 2174  
Cooling Degree Days 0 0  
Month to date cooling degree days 0  
Year to date cooling degree days 579  
Moisture  
Dew Point 15 °F    
Average Humidity 83    
Maximum Humidity 93    
Minimum Humidity 68    
Precipitation  
Precipitation 0.00 in 0.03 in 0.97 in (1911)
Month to date precipitation 0.39  
Year to date precipitation 30.37  
Snow  
Snow 0.00 in 0.30 in 2.80 in (2003)
Month to date snowfall 3.1  
Since 1 July snowfall 9.4  
Snow Depth -    
Sea Level Pressure  
Sea Level Pressure 29.88 in    
Wind  
Wind Speed 8 mph (West)    
Max Wind Speed 14 mph    
Max Gust Speed -    
Visibility 7 miles    
Events Snow    
T = Trace of Precipitation, MM = Missing Value Source: NWS Daily Summary

Daily Weather History Graph

Daily Weather History Graph

Search for Another Location

Airport:

Trip Planner

Search our weather history database for the weather conditions in past years. The results will help you decide how hot, cold, wet, or windy it might be!

Date:

Astronomy

Dec. 10, 2012 Rise Set
Actual Time 7:34 AM CST 4:26 PM CST
Civil Twilight 7:01 AM CST 4:59 PM CST
Nautical Twilight 6:24 AM CST 5:36 PM CST
Astronomical Twilight 5:48 AM CST 6:12 PM CST
Moon 4:13 AM CST (12/10) 2:19 PM CST (12/10)
Length of Visible Light 9h 58m
Length of Day
8h 51m
Waning Crescent, 10% of the Moon is Illuminated
Dec 10
Waning Crescent
Dec 13
New
Dec 19
First Quarter
Dec 28
Full
Jan 4
Last Quarter

Hourly Weather History & Observations

Time (CST) Temp. Windchill Dew Point Humidity Pressure Visibility Wind Dir Wind Speed Gust Speed Precip Events Conditions
12:15 AM 28.4 °F 20.4 °F 26.6 °F 93% 29.81 in 3.0 mi NNW 8.1 mph - N/A Snow Light Snow
12:35 AM 28.4 °F 20.4 °F 26.6 °F 93% 29.81 in 2.0 mi NNW 8.1 mph - N/A Snow Light Snow
12:55 AM 28.4 °F 20.4 °F 26.6 °F 93% 29.81 in 2.0 mi NNW 8.1 mph - N/A Snow Light Snow
1:15 AM 28.4 °F 19.1 °F 26.6 °F 93% 29.81 in 2.5 mi NNW 10.4 mph - N/A Snow Light Snow
1:55 AM 28.4 °F 19.7 °F 26.6 °F 93% 29.82 in 3.0 mi NNW 9.2 mph - N/A Snow Light Snow
2:15 AM 28.4 °F 19.1 °F 26.6 °F 93% 29.82 in 4.0 mi NNW 10.4 mph - N/A Snow Light Snow
2:35 AM 28.4 °F 18.0 °F 26.6 °F 93% 29.83 in 4.0 mi NNW 12.7 mph - N/A Snow Light Snow
2:55 AM 28.4 °F 18.0 °F 26.6 °F 93% 29.84 in 2.5 mi NW 12.7 mph - N/A Snow Light Snow
3:15 AM 26.6 °F 15.7 °F 23.0 °F 86% 29.84 in 3.0 mi NW 12.7 mph - N/A Snow Light Snow
3:35 AM 24.8 °F 12.9 °F 21.2 °F 86% 29.83 in 7.0 mi NW 13.8 mph - N/A Snow Light Snow
3:55 AM 23.0 °F 12.4 °F 19.4 °F 86% 29.83 in 10.0 mi NW 10.4 mph - N/A Snow Light Snow
4:15 AM 23.0 °F 11.1 °F 19.4 °F 86% 29.84 in 10.0 mi NW 12.7 mph - N/A   Clear
4:55 AM 23.0 °F 11.7 °F 19.4 °F 86% 29.85 in 10.0 mi NW 11.5 mph - N/A   Mostly Cloudy
5:35 AM 21.2 °F 8.9 °F 17.6 °F 86% 29.86 in 10.0 mi NW 12.7 mph - N/A   Clear
5:55 AM 21.2 °F 11.7 °F 17.6 °F 86% 29.86 in 10.0 mi WNW 8.1 mph - N/A   Clear
6:15 AM 21.2 °F 10.9 °F 17.6 °F 86% 29.86 in 7.0 mi WNW 9.2 mph - N/A Snow Light Snow
6:55 AM 19.4 °F 9.5 °F 15.8 °F 86% 29.87 in 4.0 mi WNW 8.1 mph - N/A Snow Light Snow
7:15 AM 19.4 °F 9.5 °F 15.8 °F 86% 29.87 in 4.0 mi West 8.1 mph - N/A Snow Light Snow
7:35 AM 19.4 °F 7.9 °F 15.8 °F 86% 29.88 in 3.0 mi West 10.4 mph - N/A Snow Light Snow
7:55 AM 19.4 °F 8.6 °F 14.0 °F 80% 29.88 in 3.0 mi West 9.2 mph - N/A Snow Light Snow
8:15 AM 17.6 °F 5.7 °F 14.0 °F 86% 29.88 in 1.5 mi West 10.4 mph - N/A Snow Light Snow
8:35 AM 17.6 °F 6.4 °F 14.0 °F 86% 29.89 in 1.0 mi WNW 9.2 mph - N/A Snow Light Snow
8:55 AM 17.6 °F 7.3 °F 12.2 °F 79% 29.89 in 4.0 mi West 8.1 mph - N/A Snow Light Snow
9:15 AM 17.6 °F 7.3 °F 12.2 °F 79% 29.89 in 5.0 mi West 8.1 mph - N/A Snow Light Snow
9:35 AM 17.6 °F 8.2 °F 12.2 °F 79% 29.90 in 4.0 mi West 6.9 mph - N/A Snow Light Snow
9:55 AM 17.6 °F 5.7 °F 12.2 °F 79% 29.90 in 4.0 mi West 10.4 mph - N/A Snow Light Snow
10:15 AM 17.6 °F 5.7 °F 10.4 °F 73% 29.91 in 7.0 mi West 10.4 mph - N/A   Clear
10:35 AM 17.6 °F 7.3 °F 10.4 °F 73% 29.91 in 7.0 mi West 8.1 mph - N/A   Clear
10:55 AM 17.6 °F 7.3 °F 10.4 °F 73% 29.91 in 10.0 mi West 8.1 mph - N/A   Clear
11:15 AM 17.6 °F 7.3 °F 12.2 °F 79% 29.91 in 7.0 mi West 8.1 mph - N/A   Clear
11:35 AM 17.6 °F 7.3 °F 10.4 °F 73% 29.90 in 10.0 mi WNW 8.1 mph - N/A   Clear
11:55 AM 17.6 °F 8.2 °F 10.4 °F 73% 29.89 in 10.0 mi West 6.9 mph - N/A   Clear
12:15 PM 17.6 °F 6.4 °F 10.4 °F 73% 29.90 in 10.0 mi West 9.2 mph - N/A   Clear
12:35 PM 19.4 °F 8.6 °F 10.4 °F 68% 29.89 in 10.0 mi West 9.2 mph - N/A   Clear
12:55 PM 19.4 °F 10.4 °F 12.2 °F 74% 29.89 in 10.0 mi West 6.9 mph - N/A   Clear
1:15 PM 19.4 °F 11.5 °F 12.2 °F 74% 29.88 in 10.0 mi West 5.8 mph - N/A   Clear
1:35 PM 19.4 °F 11.5 °F 12.2 °F 74% 29.88 in 10.0 mi West 5.8 mph - N/A   Clear
1:55 PM 19.4 °F 14.3 °F 12.2 °F 74% 29.88 in 10.0 mi WNW 3.5 mph - N/A   Clear
2:15 PM 19.4 °F 11.5 °F 12.2 °F 74% 29.88 in 10.0 mi West 5.8 mph - N/A   Clear
2:35 PM 19.4 °F 10.4 °F 12.2 °F 74% 29.88 in 10.0 mi West 6.9 mph - N/A   Clear
2:55 PM 17.6 °F 8.2 °F 12.2 °F 79% 29.88 in 10.0 mi West 6.9 mph - N/A   Clear
3:15 PM 19.4 °F 14.3 °F 12.2 °F 74% 29.88 in 10.0 mi West 3.5 mph - N/A   Clear
3:35 PM 19.4 °F 11.5 °F 12.2 °F 74% 29.88 in 10.0 mi West 5.8 mph - N/A   Scattered Clouds
3:55 PM 17.6 °F 10.7 °F 12.2 °F 79% 29.88 in 10.0 mi NW 4.6 mph - N/A   Scattered Clouds
4:15 PM 17.6 °F 10.7 °F 12.2 °F 79% 29.88 in 10.0 mi NW 4.6 mph - N/A   Clear
4:35 PM 15.8 °F 7.2 °F 12.2 °F 86% 29.88 in 10.0 mi WNW 5.8 mph - N/A   Scattered Clouds
4:55 PM 17.6 °F 9.3 °F 12.2 °F 79% 29.88 in 10.0 mi NW 5.8 mph - N/A   Mostly Cloudy
5:15 PM 17.6 °F 12.3 °F 12.2 °F 79% 29.88 in 10.0 mi WNW 3.5 mph - N/A   Overcast
5:35 PM 17.6 °F 10.7 °F 12.2 °F 79% 29.89 in 10.0 mi WNW 4.6 mph - N/A   Overcast
5:55 PM 17.6 °F 10.7 °F 12.2 °F 79% 29.89 in 10.0 mi WNW 4.6 mph - N/A   Overcast
6:15 PM 17.6 °F 12.3 °F 12.2 °F 79% 29.90 in 10.0 mi West 3.5 mph - N/A   Overcast
6:35 PM 17.6 °F 10.7 °F 12.2 °F 79% 29.90 in 10.0 mi WNW 4.6 mph - N/A   Mostly Cloudy
6:55 PM 17.6 °F 12.3 °F 12.2 °F 79% 29.91 in 10.0 mi NW 3.5 mph - N/A   Mostly Cloudy
7:15 PM 17.6 °F - 12.2 °F 79% 29.91 in 10.0 mi Calm Calm - N/A   Scattered Clouds
7:35 PM 17.6 °F 10.7 °F 14.0 °F 86% 29.90 in 10.0 mi West 4.6 mph - N/A   Scattered Clouds
7:55 PM 17.6 °F - 14.0 °F 86% 29.90 in 7.0 mi Calm Calm - N/A   Clear
8:15 PM 17.6 °F 12.3 °F 14.0 °F 86% 29.90 in 7.0 mi SW 3.5 mph - N/A Snow Light Snow
8:35 PM 17.6 °F 10.7 °F 14.0 °F 86% 29.90 in 3.0 mi SSW 4.6 mph - N/A Snow Light Snow
8:55 PM 15.8 °F 7.2 °F 14.0 °F 93% 29.90 in 3.0 mi SW 5.8 mph - N/A Snow Light Snow
9:15 PM 14.0 °F 6.5 °F 12.2 °F 93% 29.90 in 4.0 mi SSW 4.6 mph - N/A   Scattered Clouds
9:35 PM 14.0 °F 5.1 °F 12.2 °F 93% 29.89 in 7.0 mi SSW 5.8 mph - N/A   Scattered Clouds
9:55 PM 14.0 °F 6.5 °F 12.2 °F 93% 29.89 in 7.0 mi South 4.6 mph - N/A   Mostly Cloudy
10:15 PM 14.0 °F 2.9 °F 10.4 °F 86% 29.89 in 7.0 mi South 8.1 mph - N/A   Mostly Cloudy
10:35 PM 12.2 °F 2.9 °F 10.4 °F 92% 29.89 in 5.0 mi South 5.8 mph - N/A Snow Light Snow
10:55 PM 12.2 °F 2.9 °F 10.4 °F 92% 29.89 in 7.0 mi South 5.8 mph - N/A Snow Light Snow
11:15 PM 12.2 °F 2.9 °F 8.6 °F 85% 29.89 in 5.0 mi South 5.8 mph - N/A Snow Light Snow
11:35 PM 12.2 °F 0.7 °F 8.6 °F 85% 29.89 in 7.0 mi South 8.1 mph - N/A   Overcast
11:55 PM 10.4 °F 0.8 °F 8.6 °F 92% 29.89 in 5.0 mi South 5.8 mph - N/A Snow Light Snow